Time,TemperatureF,DewpointF,PressureIn,WindDirection,WindDirectionDegrees,WindSpeedMPH,WindSpeedGustMPH,Humidity,HourlyPrecipIn,Conditions,Clouds,dailyrainin,SoftwareType,DateUTC
2013-02-20 00:06:00,25.7,19.8,29.82,WSW,256,5.0,16.0,78,0.00,,,0.00,VWS V14.01,2013-02-20 05:06:00,
2013-02-20 00:16:00,25.6,20.0,29.82,WSW,240,4.0,13.0,79,0.00,,,0.00,VWS V14.01,2013-02-20 05:16:00,
2013-02-20 00:31:00,25.2,19.6,29.83,WSW,252,3.0,12.0,79,0.00,,,0.00,VWS V14.01,2013-02-20 05:31:00,
2013-02-20 00:46:00,24.7,19.1,29.83,NW,316,7.0,13.0,79,0.00,,,0.00,VWS V14.01,2013-02-20 05:46:00,
2013-02-20 01:01:00,24.3,19.3,29.83,West,259,3.0,14.0,81,0.00,,,0.00,VWS V14.01,2013-02-20 06:01:00,
2013-02-20 01:16:00,23.9,18.9,29.83,WSW,240,3.0,13.0,81,0.00,,,0.00,VWS V14.01,2013-02-20 06:16:00,
2013-02-20 01:31:00,24.0,19.6,29.84,West,279,7.0,15.0,83,0.00,,,0.00,VWS V14.01,2013-02-20 06:31:00,
2013-02-20 01:46:00,23.9,19.5,29.84,WNW,284,4.0,10.0,83,0.00,,,0.00,VWS V14.01,2013-02-20 06:46:00,
2013-02-20 02:01:00,24.1,19.1,29.85,West,260,6.0,14.0,81,0.00,,,0.00,VWS V14.01,2013-02-20 07:01:00,
2013-02-20 02:16:00,23.7,19.0,29.85,West,280,4.0,16.0,82,0.00,,,0.00,VWS V14.01,2013-02-20 07:16:00,
2013-02-20 02:31:00,23.5,19.1,29.86,WSW,238,4.0,10.0,83,0.00,,,0.00,VWS V14.01,2013-02-20 07:31:00,
2013-02-20 02:46:00,23.3,19.2,29.86,West,275,3.0,10.0,84,0.00,,,0.00,VWS V14.01,2013-02-20 07:46:00,
2013-02-20 03:16:00,23.1,17.6,29.86,West,264,7.0,11.0,79,0.00,,,0.00,VWS V14.01,2013-02-20 08:16:00,
2013-02-20 03:31:00,22.8,17.6,29.86,WSW,256,3.0,13.0,80,0.00,,,0.00,VWS V14.01,2013-02-20 08:31:00,
2013-02-20 03:46:00,22.5,17.3,29.86,SW,223,8.0,12.0,80,0.00,,,0.00,VWS V14.01,2013-02-20 08:46:00,
2013-02-20 04:01:00,22.4,16.9,29.86,SW,229,7.0,11.0,79,0.00,,,0.00,VWS V14.01,2013-02-20 09:01:00,
2013-02-20 04:16:00,22.2,16.7,29.87,West,277,3.0,14.0,79,0.00,,,0.00,VWS V14.01,2013-02-20 09:16:00,
2013-02-20 04:31:00,21.8,16.6,29.87,SW,233,6.0,11.0,80,0.00,,,0.00,VWS V14.01,2013-02-20 09:31:00,
2013-02-20 04:46:00,21.6,16.1,29.87,WSW,237,6.0,11.0,79,0.00,,,0.00,VWS V14.01,2013-02-20 09:46:00,
2013-02-20 05:01:00,21.5,15.7,29.88,West,259,7.0,13.0,78,0.00,,,0.00,VWS V14.01,2013-02-20 10:01:00,
2013-02-20 05:16:00,21.2,15.7,29.88,West,279,5.0,15.0,79,0.00,,,0.00,VWS V14.01,2013-02-20 10:16:00,
2013-02-20 05:31:00,20.9,15.7,29.88,WSW,237,9.0,11.0,80,0.00,,,0.00,VWS V14.01,2013-02-20 10:31:00,
2013-02-20 05:46:00,20.7,15.2,29.88,West,260,4.0,13.0,79,0.00,,,0.00,VWS V14.01,2013-02-20 10:46:00,
2013-02-20 06:01:00,20.6,15.1,29.88,West,270,2.0,9.0,79,0.00,,,0.00,VWS V14.01,2013-02-20 11:01:00,
2013-02-20 06:16:00,20.5,15.0,29.88,West,272,2.0,12.0,79,0.00,,,0.00,VWS V14.01,2013-02-20 11:16:00,
2013-02-20 06:31:00,20.3,15.1,29.90,NW,309,5.0,14.0,80,0.00,,,0.00,VWS V14.01,2013-02-20 11:31:00,
2013-02-20 06:46:00,20.3,14.8,29.90,West,279,10.0,15.0,79,0.00,,,0.00,VWS V14.01,2013-02-20 11:46:00,
2013-02-20 07:01:00,20.6,14.2,29.90,NNW,331,5.0,18.0,76,0.00,,,0.00,VWS V14.01,2013-02-20 12:01:00,
2013-02-20 07:16:00,20.7,13.7,29.91,WSW,243,4.0,15.0,74,0.00,,,0.00,VWS V14.01,2013-02-20 12:16:00,
2013-02-20 07:31:00,20.6,14.8,29.91,WSW,253,4.0,15.0,78,0.00,,,0.00,VWS V14.01,2013-02-20 12:31:00,
2013-02-20 07:46:00,20.5,15.3,29.92,WSW,257,0.0,10.0,80,0.00,,,0.00,VWS V14.01,2013-02-20 12:46:00,
2013-02-20 08:01:00,20.6,14.2,29.91,WNW,300,3.0,16.0,76,0.00,,,0.00,VWS V14.01,2013-02-20 13:01:00,
2013-02-20 08:16:00,20.8,14.7,29.92,WSW,242,5.0,15.0,77,0.00,,,0.00,VWS V14.01,2013-02-20 13:16:00,
2013-02-20 08:31:00,20.9,14.8,29.92,WNW,282,6.0,16.0,77,0.00,,,0.00,VWS V14.01,2013-02-20 13:31:00,
2013-02-20 08:46:00,21.1,14.1,29.92,WNW,297,3.0,13.0,74,0.00,,,0.00,VWS V14.01,2013-02-20 13:46:00,
2013-02-20 09:01:00,21.2,13.9,29.93,SSW,206,8.0,18.0,73,0.00,,,0.00,VWS V14.01,2013-02-20 14:01:00,
2013-02-20 09:16:00,21.5,13.9,29.93,West,276,3.0,18.0,72,0.00,,,0.00,VWS V14.01,2013-02-20 14:16:00,
2013-02-20 09:31:00,21.7,13.1,29.93,NW,309,12.0,17.0,69,0.00,,,0.00,VWS V14.01,2013-02-20 14:31:00,
2013-02-20 09:46:00,22.4,13.1,29.93,NNW,340,8.0,17.0,67,0.00,,,0.00,VWS V14.01,2013-02-20 14:46:00,
2013-02-20 10:01:00,22.3,13.0,29.93,West,264,9.0,18.0,67,0.00,,,0.00,VWS V14.01,2013-02-20 15:01:00,
2013-02-20 10:16:00,22.7,13.4,29.93,WSW,254,8.0,19.0,67,0.00,,,0.00,VWS V14.01,2013-02-20 15:16:00,
2013-02-20 10:31:00,22.4,13.4,29.94,West,268,6.0,16.0,68,0.00,,,0.00,VWS V14.01,2013-02-20 15:31:00,
2013-02-20 10:46:00,23.1,13.8,29.94,West,259,8.0,18.0,67,0.00,,,0.00,VWS V14.01,2013-02-20 15:46:00,
2013-02-20 11:01:00,23.3,14.0,29.94,West,271,12.0,18.0,67,0.00,,,0.00,VWS V14.01,2013-02-20 16:01:00,
2013-02-20 11:16:00,23.0,13.4,29.94,WNW,292,9.0,22.0,66,0.00,,,0.00,VWS V14.01,2013-02-20 16:16:00,
2013-02-20 11:31:00,22.6,12.6,29.95,West,259,7.0,17.0,65,0.00,,,0.00,VWS V14.01,2013-02-20 16:31:00,
2013-02-20 11:46:00,23.2,13.2,29.96,WSW,250,8.0,21.0,65,0.00,,,0.00,VWS V14.01,2013-02-20 16:46:00,
2013-02-20 12:01:00,23.1,12.8,29.95,WNW,284,5.0,21.0,64,0.00,,,0.00,VWS V14.01,2013-02-20 17:01:00,
2013-02-20 12:16:00,23.4,13.0,29.96,WSW,258,4.0,18.0,64,0.00,,,0.00,VWS V14.01,2013-02-20 17:16:00,
2013-02-20 12:31:00,23.3,12.9,29.96,West,265,9.0,23.0,64,0.00,,,0.00,VWS V14.01,2013-02-20 17:31:00,
2013-02-20 12:46:00,23.2,13.5,29.97,WNW,293,5.0,18.0,66,0.00,,,0.00,VWS V14.01,2013-02-20 17:46:00,
2013-02-20 13:01:00,23.0,14.4,29.97,WSW,245,14.0,22.0,69,0.00,,,0.00,VWS V14.01,2013-02-20 18:01:00,
2013-02-20 13:16:00,23.5,14.5,29.97,WSW,246,5.0,19.0,68,0.00,,,0.00,VWS V14.01,2013-02-20 18:16:00,
2013-02-20 13:32:00,23.7,15.0,29.98,WNW,298,10.0,10.0,69,0.00,,,0.00,VWS V14.01,2013-02-20 18:32:00,
2013-02-20 13:46:00,23.4,15.1,29.98,East,98,6.0,20.0,70,0.00,,,0.00,VWS V14.01,2013-02-20 18:46:00,
2013-02-20 14:01:00,24.1,16.1,29.98,WSW,255,10.0,17.0,71,0.00,,,0.00,VWS V14.01,2013-02-20 19:01:00,
2013-02-20 14:16:00,23.8,16.4,29.99,WNW,285,6.0,19.0,73,0.00,,,0.00,VWS V14.01,2013-02-20 19:16:00,
2013-02-20 14:31:00,23.4,16.0,30.00,NW,304,5.0,22.0,73,0.00,,,0.00,VWS V14.01,2013-02-20 19:31:00,
2013-02-20 14:46:00,23.4,16.4,30.00,West,271,7.0,19.0,74,0.00,,,0.00,VWS V14.01,2013-02-20 19:46:00,
2013-02-20 15:01:00,23.2,15.8,30.01,SW,233,7.0,19.0,73,0.00,,,0.00,VWS V14.01,2013-02-20 20:01:00,
2013-02-20 15:16:00,22.7,15.7,30.02,WNW,288,6.0,18.0,74,0.00,,,0.00,VWS V14.01,2013-02-20 20:16:00,
2013-02-20 15:31:00,22.8,16.1,30.02,West,267,10.0,18.0,75,0.00,,,0.00,VWS V14.01,2013-02-20 20:31:00,
2013-02-20 15:46:00,22.8,16.1,30.03,West,279,6.0,19.0,75,0.00,,,0.00,VWS V14.01,2013-02-20 20:46:00,
2013-02-20 16:01:00,22.7,16.3,30.03,SW,229,7.0,15.0,76,0.00,,,0.00,VWS V14.01,2013-02-20 21:01:00,
2013-02-20 16:16:00,22.6,15.9,30.05,WNW,295,4.0,16.0,75,0.00,,,0.00,VWS V14.01,2013-02-20 21:16:00,
2013-02-20 16:31:00,22.7,15.7,30.05,WNW,283,2.0,17.0,74,0.00,,,0.00,VWS V14.01,2013-02-20 21:31:00,
2013-02-20 16:46:00,22.5,15.8,30.05,West,278,4.0,15.0,75,0.00,,,0.00,VWS V14.01,2013-02-20 21:46:00,
2013-02-20 17:01:00,22.4,16.6,30.07,West,278,2.0,12.0,78,0.00,,,0.00,VWS V14.01,2013-02-20 22:01:00,
2013-02-20 17:16:00,21.9,16.7,30.08,WSW,256,5.0,17.0,80,0.00,,,0.00,VWS V14.01,2013-02-20 22:16:00,
2013-02-20 17:31:00,21.8,16.6,30.06,WSW,252,3.0,17.0,80,0.00,,,0.00,VWS V14.01,2013-02-20 22:31:00,
2013-02-20 17:46:00,21.6,16.7,30.06,SW,231,8.0,12.0,81,0.00,,,0.00,VWS V14.01,2013-02-20 22:46:00,
2013-02-20 18:01:00,21.6,16.4,30.08,SSW,211,3.0,13.0,80,0.00,,,0.00,VWS V14.01,2013-02-20 23:01:00,
2013-02-20 18:16:00,21.6,16.4,30.08,WSW,239,4.0,15.0,80,0.00,,,0.00,VWS V14.01,2013-02-20 23:16:00,
2013-02-20 18:31:00,21.4,16.2,30.09,WSW,250,5.0,19.0,80,0.00,,,0.00,VWS V14.01,2013-02-20 23:31:00,
2013-02-20 18:46:00,21.2,16.0,30.10,West,281,10.0,17.0,80,0.00,,,0.00,VWS V14.01,2013-02-20 23:46:00,
2013-02-20 19:01:00,21.1,15.6,30.10,WNW,286,8.0,16.0,79,0.00,,,0.00,VWS V14.01,2013-02-21 00:01:00,
2013-02-20 19:16:00,21.1,15.3,30.11,WSW,255,6.0,14.0,78,0.00,,,0.00,VWS V14.01,2013-02-21 00:16:00,
2013-02-20 19:31:00,20.9,14.8,30.10,West,271,5.0,15.0,77,0.00,,,0.00,VWS V14.01,2013-02-21 00:31:00,
2013-02-20 19:46:00,20.9,14.8,30.11,WSW,249,3.0,20.0,77,0.00,,,0.00,VWS V14.01,2013-02-21 00:46:00,
2013-02-20 20:01:00,20.8,14.4,30.11,WNW,290,11.0,18.0,76,0.00,,,0.00,VWS V14.01,2013-02-21 01:01:00,
2013-02-20 20:16:00,20.6,14.2,30.12,West,271,2.0,20.0,76,0.00,,,0.00,VWS V14.01,2013-02-21 01:16:00,
2013-02-20 23:00:00,19.1,15.3,30.13,West,270,4.0,12.0,85,0.00,,,0.00,VWS V14.01,2013-02-21 04:00:00,
2013-02-20 23:31:00,19.3,15.5,30.12,West,277,3.0,8.0,85,0.00,,,0.00,VWS V14.01,2013-02-21 04:31:00,
2013-02-20 23:46:00,19.4,15.9,30.13,West,271,2.0,9.0,86,0.00,,,0.00,VWS V14.01,2013-02-21 04:46:00,